owner,sensor,date,latitude,longitude,air_pressure(mBar),qcFlag 
WAVCIS,ioos:station:WAVCIS:CSI03:1,2011-10-01T00:00:00Z,29.4412,-92.0613,1012.1,11111222 
WAVCIS,ioos:station:WAVCIS:CSI03:1,2011-10-01T01:00:00Z,29.4412,-92.0613,1012.75,11111222 
WAVCIS,ioos:station:WAVCIS:CSI03:1,2011-10-01T02:00:00Z,29.4412,-92.0613,1013.54,11111222 
WAVCIS,ioos:station:WAVCIS:CSI03:1,2011-10-01T03:00:00Z,29.4412,-92.0613,1014.18,11111222 
WAVCIS,ioos:station:WAVCIS:CSI03:1,2011-10-01T04:00:00Z,29.4412,-92.0613,1014.69,11111222 
WAVCIS,ioos:station:WAVCIS:CSI03:1,2011-10-01T05:00:00Z,29.4412,-92.0613,1014.86,11111222 
WAVCIS,ioos:station:WAVCIS:CSI03:1,2011-10-01T06:00:00Z,29.4412,-92.0613,1014.98,11111222 
WAVCIS,ioos:station:WAVCIS:CSI03:1,2011-10-01T07:00:00Z,29.4412,-92.0613,1015.07,11111222 
WAVCIS,ioos:station:WAVCIS:CSI03:1,2011-10-01T08:00:00Z,29.4412,-92.0613,1014.84,11111222 
WAVCIS,ioos:station:WAVCIS:CSI03:1,2011-10-01T09:00:00Z,29.4412,-92.0613,1014.68,11111222 
WAVCIS,ioos:station:WAVCIS:CSI03:1,2011-10-01T10:00:00Z,29.4412,-92.0613,1015.08,11111222 
WAVCIS,ioos:station:WAVCIS:CSI03:1,2011-10-01T11:00:00Z,29.4412,-92.0613,1015.66,11111222 
WAVCIS,ioos:station:WAVCIS:CSI03:1,2011-10-01T12:00:00Z,29.4412,-92.0613,1016.42,11111222 
WAVCIS,ioos:station:WAVCIS:CSI03:1,2011-10-01T13:00:00Z,29.4412,-92.0613,1017.13,11111222 
WAVCIS,ioos:station:WAVCIS:CSI03:1,2011-10-01T14:00:00Z,29.4412,-92.0613,1018.13,11111222 
WAVCIS,ioos:station:WAVCIS:CSI03:1,2011-10-01T15:00:00Z,29.4412,-92.0613,1018.79,11111222 
WAVCIS,ioos:station:WAVCIS:CSI03:1,2011-10-01T16:00:00Z,29.4412,-92.0613,1019.0,11111222 
WAVCIS,ioos:station:WAVCIS:CSI03:1,2011-10-01T17:00:00Z,29.4412,-92.0613,1018.89,11111222 
WAVCIS,ioos:station:WAVCIS:CSI03:1,2011-10-01T18:00:00Z,29.4412,-92.0613,1018.48,11111222 
WAVCIS,ioos:station:WAVCIS:CSI03:1,2011-10-01T19:00:00Z,29.4412,-92.0613,1017.64,11111222 
WAVCIS,ioos:station:WAVCIS:CSI03:1,2011-10-01T20:00:00Z,29.4412,-92.0613,1017.02,11111222 
WAVCIS,ioos:station:WAVCIS:CSI03:1,2011-10-01T21:00:00Z,29.4412,-92.0613,1016.67,11111222 
WAVCIS,ioos:station:WAVCIS:CSI03:1,2011-10-01T22:00:00Z,29.4412,-92.0613,1016.49,11111222 
WAVCIS,ioos:station:WAVCIS:CSI03:1,2011-10-01T23:00:00Z,29.4412,-92.0613,1016.46,11111222 
WAVCIS,ioos:station:WAVCIS:CSI03:1,2011-10-02T00:00:00Z,29.4412,-92.0613,1016.65,11111222 
WAVCIS,ioos:station:WAVCIS:CSI03:1,2011-10-02T01:00:00Z,29.4412,-92.0613,1016.97,11111222 
WAVCIS,ioos:station:WAVCIS:CSI03:1,2011-10-02T02:00:00Z,29.4412,-92.0613,1017.3,11111222 
WAVCIS,ioos:station:WAVCIS:CSI03:1,2011-10-02T03:00:00Z,29.4412,-92.0613,1017.7,11111222 
WAVCIS,ioos:station:WAVCIS:CSI03:1,2011-10-02T04:00:00Z,29.4412,-92.0613,1017.68,11111222 
WAVCIS,ioos:station:WAVCIS:CSI03:1,2011-10-02T05:00:00Z,29.4412,-92.0613,1017.7,11111222 
WAVCIS,ioos:station:WAVCIS:CSI03:1,2011-10-02T06:00:00Z,29.4412,-92.0613,1017.64,11111222 
WAVCIS,ioos:station:WAVCIS:CSI03:1,2011-10-02T07:00:00Z,29.4412,-92.0613,1017.76,11111222 
WAVCIS,ioos:station:WAVCIS:CSI03:1,2011-10-02T08:00:00Z,29.4412,-92.0613,1017.83,11111222 
WAVCIS,ioos:station:WAVCIS:CSI03:1,2011-10-02T09:00:00Z,29.4412,-92.0613,1017.48,11111222 
WAVCIS,ioos:station:WAVCIS:CSI03:1,2011-10-02T10:00:00Z,29.4412,-92.0613,1017.58,11111222 
WAVCIS,ioos:station:WAVCIS:CSI03:1,2011-10-02T11:00:00Z,29.4412,-92.0613,1018.16,11111222 
WAVCIS,ioos:station:WAVCIS:CSI03:1,2011-10-02T12:00:00Z,29.4412,-92.0613,1019.1,11111222 
WAVCIS,ioos:station:WAVCIS:CSI03:1,2011-10-02T13:00:00Z,29.4412,-92.0613,1019.73,11111222 
WAVCIS,ioos:station:WAVCIS:CSI03:1,2011-10-02T14:00:00Z,29.4412,-92.0613,1020.33,11111222 
WAVCIS,ioos:station:WAVCIS:CSI03:1,2011-10-02T15:00:00Z,29.4412,-92.0613,1020.81,11111222 
WAVCIS,ioos:station:WAVCIS:CSI03:1,2011-10-02T16:00:00Z,29.4412,-92.0613,1020.92,11111222 
WAVCIS,ioos:station:WAVCIS:CSI03:1,2011-10-02T17:00:00Z,29.4412,-92.0613,1020.78,11111222 
WAVCIS,ioos:station:WAVCIS:CSI03:1,2011-10-02T18:00:00Z,29.4412,-92.0613,1020.11,11111222 
WAVCIS,ioos:station:WAVCIS:CSI03:1,2011-10-02T19:00:00Z,29.4412,-92.0613,1019.38,11111222 
WAVCIS,ioos:station:WAVCIS:CSI03:1,2011-10-02T20:00:00Z,29.4412,-92.0613,1018.7,11111222 
WAVCIS,ioos:station:WAVCIS:CSI03:1,2011-10-02T21:00:00Z,29.4412,-92.0613,1018.43,11111222 
WAVCIS,ioos:station:WAVCIS:CSI03:1,2011-10-02T22:00:00Z,29.4412,-92.0613,1018.22,11111222 
WAVCIS,ioos:station:WAVCIS:CSI03:1,2011-10-02T23:00:00Z,29.4412,-92.0613,1018.02,11111222 
WAVCIS,ioos:station:WAVCIS:CSI03:1,2011-10-03T00:00:00Z,29.4412,-92.0613,1018.31,11111222 
WAVCIS,ioos:station:WAVCIS:CSI03:1,2011-10-03T01:00:00Z,29.4412,-92.0613,1018.51,11111222 
WAVCIS,ioos:station:WAVCIS:CSI03:1,2011-10-03T02:00:00Z,29.4412,-92.0613,1018.85,11111222 
WAVCIS,ioos:station:WAVCIS:CSI03:1,2011-10-03T03:00:00Z,29.4412,-92.0613,1019.12,11111222 
WAVCIS,ioos:station:WAVCIS:CSI03:1,2011-10-03T04:00:00Z,29.4412,-92.0613,1019.02,11111222 
WAVCIS,ioos:station:WAVCIS:CSI03:1,2011-10-03T05:00:00Z,29.4412,-92.0613,1018.92,11111222 
WAVCIS,ioos:station:WAVCIS:CSI03:1,2011-10-03T06:00:00Z,29.4412,-92.0613,1018.76,11111222 
WAVCIS,ioos:station:WAVCIS:CSI03:1,2011-10-03T07:00:00Z,29.4412,-92.0613,1018.67,11111222 
WAVCIS,ioos:station:WAVCIS:CSI03:1,2011-10-03T08:00:00Z,29.4412,-92.0613,1018.57,11111222 
WAVCIS,ioos:station:WAVCIS:CSI03:1,2011-10-03T09:00:00Z,29.4412,-92.0613,1018.51,11111222 
WAVCIS,ioos:station:WAVCIS:CSI03:1,2011-10-03T10:00:00Z,29.4412,-92.0613,1018.92,11111222 
WAVCIS,ioos:station:WAVCIS:CSI03:1,2011-10-03T11:00:00Z,29.4412,-92.0613,1019.46,11111222 
WAVCIS,ioos:station:WAVCIS:CSI03:1,2011-10-03T12:00:00Z,29.4412,-92.0613,1020.09,11111222 
WAVCIS,ioos:station:WAVCIS:CSI03:1,2011-10-03T13:00:00Z,29.4412,-92.0613,1020.35,11111222 
WAVCIS,ioos:station:WAVCIS:CSI03:1,2011-10-03T14:00:00Z,29.4412,-92.0613,1021.1,11111222 
WAVCIS,ioos:station:WAVCIS:CSI03:1,2011-10-03T15:00:00Z,29.4412,-92.0613,1021.46,11111222 
WAVCIS,ioos:station:WAVCIS:CSI03:1,2011-10-03T16:00:00Z,29.4412,-92.0613,1021.74,11111222 
WAVCIS,ioos:station:WAVCIS:CSI03:1,2011-10-03T17:00:00Z,29.4412,-92.0613,1021.8,11111222 
WAVCIS,ioos:station:WAVCIS:CSI03:1,2011-10-03T18:00:00Z,29.4412,-92.0613,1021.23,11111222 
WAVCIS,ioos:station:WAVCIS:CSI03:1,2011-10-03T19:00:00Z,29.4412,-92.0613,1020.44,11111222 
WAVCIS,ioos:station:WAVCIS:CSI03:1,2011-10-03T20:00:00Z,29.4412,-92.0613,1019.88,11111222 
WAVCIS,ioos:station:WAVCIS:CSI03:1,2011-10-03T21:00:00Z,29.4412,-92.0613,1019.35,11111222 
WAVCIS,ioos:station:WAVCIS:CSI03:1,2011-10-03T22:00:00Z,29.4412,-92.0613,1019.19,11111222 
WAVCIS,ioos:station:WAVCIS:CSI03:1,2011-10-03T23:00:00Z,29.4412,-92.0613,1019.09,11111222 
WAVCIS,ioos:station:WAVCIS:CSI03:1,2011-10-04T00:00:00Z,29.4412,-92.0613,1019.1,11111222 
WAVCIS,ioos:station:WAVCIS:CSI03:1,2011-10-04T01:00:00Z,29.4412,-92.0613,1019.33,11111222 
WAVCIS,ioos:station:WAVCIS:CSI03:1,2011-10-04T02:00:00Z,29.4412,-92.0613,1019.6,11111222 
WAVCIS,ioos:station:WAVCIS:CSI03:1,2011-10-04T03:00:00Z,29.4412,-92.0613,1019.95,11111222 
WAVCIS,ioos:station:WAVCIS:CSI03:1,2011-10-04T04:00:00Z,29.4412,-92.0613,1020.16,11111222 
WAVCIS,ioos:station:WAVCIS:CSI03:1,2011-10-04T05:00:00Z,29.4412,-92.0613,1019.92,11111222 
WAVCIS,ioos:station:WAVCIS:CSI03:1,2011-10-04T06:00:00Z,29.4412,-92.0613,1019.59,11111222 
WAVCIS,ioos:station:WAVCIS:CSI03:1,2011-10-04T07:00:00Z,29.4412,-92.0613,1019.51,11111222 
WAVCIS,ioos:station:WAVCIS:CSI03:1,2011-10-04T08:00:00Z,29.4412,-92.0613,1019.48,11111222 
WAVCIS,ioos:station:WAVCIS:CSI03:1,2011-10-04T09:00:00Z,29.4412,-92.0613,1019.43,11111222 
WAVCIS,ioos:station:WAVCIS:CSI03:1,2011-10-04T10:00:00Z,29.4412,-92.0613,1019.52,11111222 
WAVCIS,ioos:station:WAVCIS:CSI03:1,2011-10-04T11:00:00Z,29.4412,-92.0613,1020.09,11111222 
WAVCIS,ioos:station:WAVCIS:CSI03:1,2011-10-04T12:00:00Z,29.4412,-92.0613,1020.46,11111222 
WAVCIS,ioos:station:WAVCIS:CSI03:1,2011-10-04T13:00:00Z,29.4412,-92.0613,1020.98,11111222 
WAVCIS,ioos:station:WAVCIS:CSI03:1,2011-10-04T14:00:00Z,29.4412,-92.0613,1021.52,11111222 
WAVCIS,ioos:station:WAVCIS:CSI03:1,2011-10-04T15:00:00Z,29.4412,-92.0613,1021.68,11111222 
WAVCIS,ioos:station:WAVCIS:CSI03:1,2011-10-04T16:00:00Z,29.4412,-92.0613,1021.89,11111222 
WAVCIS,ioos:station:WAVCIS:CSI03:1,2011-10-04T17:00:00Z,29.4412,-92.0613,1021.69,11111222 
WAVCIS,ioos:station:WAVCIS:CSI03:1,2011-10-04T18:00:00Z,29.4412,-92.0613,1021.03,11111222 
WAVCIS,ioos:station:WAVCIS:CSI03:1,2011-10-04T19:00:00Z,29.4412,-92.0613,1020.24,11111222 
WAVCIS,ioos:station:WAVCIS:CSI03:1,2011-10-04T20:00:00Z,29.4412,-92.0613,1019.43,11111222 
WAVCIS,ioos:station:WAVCIS:CSI03:1,2011-10-04T21:00:00Z,29.4412,-92.0613,1018.71,11111222 
WAVCIS,ioos:station:WAVCIS:CSI03:1,2011-10-04T22:00:00Z,29.4412,-92.0613,1018.32,11111222 
WAVCIS,ioos:station:WAVCIS:CSI03:1,2011-10-04T23:00:00Z,29.4412,-92.0613,1018.16,11111222 
WAVCIS,ioos:station:WAVCIS:CSI03:1,2011-10-05T00:00:00Z,29.4412,-92.0613,1018.31,11111222 
WAVCIS,ioos:station:WAVCIS:CSI03:1,2011-10-05T01:00:00Z,29.4412,-92.0613,1018.5,11111222 
WAVCIS,ioos:station:WAVCIS:CSI03:1,2011-10-05T02:00:00Z,29.4412,-92.0613,1018.9,11111222 
WAVCIS,ioos:station:WAVCIS:CSI03:1,2011-10-05T03:00:00Z,29.4412,-92.0613,1018.98,11111222 
WAVCIS,ioos:station:WAVCIS:CSI03:1,2011-10-05T04:00:00Z,29.4412,-92.0613,1018.92,11111222 
WAVCIS,ioos:station:WAVCIS:CSI03:1,2011-10-05T05:00:00Z,29.4412,-92.0613,1018.67,11111222 
WAVCIS,ioos:station:WAVCIS:CSI03:1,2011-10-05T06:00:00Z,29.4412,-92.0613,1018.16,11111222 
WAVCIS,ioos:station:WAVCIS:CSI03:1,2011-10-05T07:00:00Z,29.4412,-92.0613,1017.95,11111222 
WAVCIS,ioos:station:WAVCIS:CSI03:1,2011-10-05T08:00:00Z,29.4412,-92.0613,1017.77,11111222 
WAVCIS,ioos:station:WAVCIS:CSI03:1,2011-10-05T09:00:00Z,29.4412,-92.0613,1017.56,11111222 
WAVCIS,ioos:station:WAVCIS:CSI03:1,2011-10-05T10:00:00Z,29.4412,-92.0613,1017.58,11111222 
WAVCIS,ioos:station:WAVCIS:CSI03:1,2011-10-05T11:00:00Z,29.4412,-92.0613,1017.9,11111222 
WAVCIS,ioos:station:WAVCIS:CSI03:1,2011-10-05T12:00:00Z,29.4412,-92.0613,1018.19,11111222 
WAVCIS,ioos:station:WAVCIS:CSI03:1,2011-10-05T13:00:00Z,29.4412,-92.0613,1018.48,11111222 
WAVCIS,ioos:station:WAVCIS:CSI03:1,2011-10-05T14:00:00Z,29.4412,-92.0613,1018.83,11111222 
WAVCIS,ioos:station:WAVCIS:CSI03:1,2011-10-05T15:00:00Z,29.4412,-92.0613,1019.33,11111222 
WAVCIS,ioos:station:WAVCIS:CSI03:1,2011-10-05T16:00:00Z,29.4412,-92.0613,1019.26,11111222 
WAVCIS,ioos:station:WAVCIS:CSI03:1,2011-10-05T17:00:00Z,29.4412,-92.0613,1018.94,11111222 
WAVCIS,ioos:station:WAVCIS:CSI03:1,2011-10-05T18:00:00Z,29.4412,-92.0613,1018.44,11111222 
WAVCIS,ioos:station:WAVCIS:CSI03:1,2011-10-05T19:00:00Z,29.4412,-92.0613,1017.57,11111222 
WAVCIS,ioos:station:WAVCIS:CSI03:1,2011-10-05T20:00:00Z,29.4412,-92.0613,1016.85,11111222 
WAVCIS,ioos:station:WAVCIS:CSI03:1,2011-10-05T21:00:00Z,29.4412,-92.0613,1015.91,11111222 
WAVCIS,ioos:station:WAVCIS:CSI03:1,2011-10-05T22:00:00Z,29.4412,-92.0613,1015.89,11111222 
WAVCIS,ioos:station:WAVCIS:CSI03:1,2011-10-05T23:00:00Z,29.4412,-92.0613,1015.76,11111222 
WAVCIS,ioos:station:WAVCIS:CSI03:1,2011-10-06T00:00:00Z,29.4412,-92.0613,1015.52,11111222 
WAVCIS,ioos:station:WAVCIS:CSI03:1,2011-10-06T01:00:00Z,29.4412,-92.0613,1015.42,11111222 
WAVCIS,ioos:station:WAVCIS:CSI03:1,2011-10-06T02:00:00Z,29.4412,-92.0613,1016.13,11111222 
WAVCIS,ioos:station:WAVCIS:CSI03:1,2011-10-06T03:00:00Z,29.4412,-92.0613,1016.22,11111222 
WAVCIS,ioos:station:WAVCIS:CSI03:1,2011-10-06T04:00:00Z,29.4412,-92.0613,1016.06,11111222 
WAVCIS,ioos:station:WAVCIS:CSI03:1,2011-10-06T05:00:00Z,29.4412,-92.0613,1016.27,11111222 
WAVCIS,ioos:station:WAVCIS:CSI03:1,2011-10-06T06:00:00Z,29.4412,-92.0613,1015.4,11111222 
WAVCIS,ioos:station:WAVCIS:CSI03:1,2011-10-06T07:00:00Z,29.4412,-92.0613,1015.09,11111222 
WAVCIS,ioos:station:WAVCIS:CSI03:1,2011-10-06T08:00:00Z,29.4412,-92.0613,1015.04,11111222 
WAVCIS,ioos:station:WAVCIS:CSI03:1,2011-10-06T09:00:00Z,29.4412,-92.0613,1014.85,11111222 
WAVCIS,ioos:station:WAVCIS:CSI03:1,2011-10-06T10:00:00Z,29.4412,-92.0613,1014.73,11111222 
WAVCIS,ioos:station:WAVCIS:CSI03:1,2011-10-06T11:00:00Z,29.4412,-92.0613,1014.95,11111222 
WAVCIS,ioos:station:WAVCIS:CSI03:1,2011-10-06T12:00:00Z,29.4412,-92.0613,1015.56,11111222 
WAVCIS,ioos:station:WAVCIS:CSI03:1,2011-10-06T13:00:00Z,29.4412,-92.0613,1015.96,11111222 
WAVCIS,ioos:station:WAVCIS:CSI03:1,2011-10-06T14:00:00Z,29.4412,-92.0613,1016.32,11111222 
WAVCIS,ioos:station:WAVCIS:CSI03:1,2011-10-06T15:00:00Z,29.4412,-92.0613,1016.73,11111222 
WAVCIS,ioos:station:WAVCIS:CSI03:1,2011-10-06T16:00:00Z,29.4412,-92.0613,1016.9,11111222 
WAVCIS,ioos:station:WAVCIS:CSI03:1,2011-10-06T17:00:00Z,29.4412,-92.0613,1016.7,11111222 
WAVCIS,ioos:station:WAVCIS:CSI03:1,2011-10-06T18:00:00Z,29.4412,-92.0613,1016.38,11111222 
WAVCIS,ioos:station:WAVCIS:CSI03:1,2011-10-06T19:00:00Z,29.4412,-92.0613,1016.07,11111222 
WAVCIS,ioos:station:WAVCIS:CSI03:1,2011-10-06T20:00:00Z,29.4412,-92.0613,1015.12,11111222 
WAVCIS,ioos:station:WAVCIS:CSI03:1,2011-10-06T21:00:00Z,29.4412,-92.0613,1014.88,11111222 
WAVCIS,ioos:station:WAVCIS:CSI03:1,2011-10-06T22:00:00Z,29.4412,-92.0613,1014.75,11111222 
WAVCIS,ioos:station:WAVCIS:CSI03:1,2011-10-06T23:00:00Z,29.4412,-92.0613,1014.94,11111222 
WAVCIS,ioos:station:WAVCIS:CSI03:1,2011-10-07T00:00:00Z,29.4412,-92.0613,1015.08,11111222 
WAVCIS,ioos:station:WAVCIS:CSI03:1,2011-10-07T01:00:00Z,29.4412,-92.0613,1015.56,11111222 
WAVCIS,ioos:station:WAVCIS:CSI03:1,2011-10-07T02:00:00Z,29.4412,-92.0613,1015.84,11111222 
WAVCIS,ioos:station:WAVCIS:CSI03:1,2011-10-07T03:00:00Z,29.4412,-92.0613,1016.4,11111222 
WAVCIS,ioos:station:WAVCIS:CSI03:1,2011-10-07T04:00:00Z,29.4412,-92.0613,1016.73,11111222 
WAVCIS,ioos:station:WAVCIS:CSI03:1,2011-10-07T05:00:00Z,29.4412,-92.0613,1016.3,11111222 
WAVCIS,ioos:station:WAVCIS:CSI03:1,2011-10-07T06:00:00Z,29.4412,-92.0613,1015.84,11111222 
WAVCIS,ioos:station:WAVCIS:CSI03:1,2011-10-07T07:00:00Z,29.4412,-92.0613,1015.9,11111222 
WAVCIS,ioos:station:WAVCIS:CSI03:1,2011-10-07T08:00:00Z,29.4412,-92.0613,1015.57,11111222 
WAVCIS,ioos:station:WAVCIS:CSI03:1,2011-10-07T09:00:00Z,29.4412,-92.0613,1015.61,11111222 
WAVCIS,ioos:station:WAVCIS:CSI03:1,2011-10-07T10:00:00Z,29.4412,-92.0613,1015.6,11111222 
WAVCIS,ioos:station:WAVCIS:CSI03:1,2011-10-07T11:00:00Z,29.4412,-92.0613,1016.06,11111222 
WAVCIS,ioos:station:WAVCIS:CSI03:1,2011-10-07T12:00:00Z,29.4412,-92.0613,1016.53,11111222 
WAVCIS,ioos:station:WAVCIS:CSI03:1,2011-10-07T13:00:00Z,29.4412,-92.0613,1016.87,11111222 
WAVCIS,ioos:station:WAVCIS:CSI03:1,2011-10-07T14:00:00Z,29.4412,-92.0613,1017.27,11111222 
WAVCIS,ioos:station:WAVCIS:CSI03:1,2011-10-07T15:00:00Z,29.4412,-92.0613,1017.75,11111222 
WAVCIS,ioos:station:WAVCIS:CSI03:1,2011-10-07T16:00:00Z,29.4412,-92.0613,1018.08,11111222 
WAVCIS,ioos:station:WAVCIS:CSI03:1,2011-10-07T17:00:00Z,29.4412,-92.0613,1018.01,11111222 
WAVCIS,ioos:station:WAVCIS:CSI03:1,2011-10-07T18:00:00Z,29.4412,-92.0613,1017.52,11111222 
WAVCIS,ioos:station:WAVCIS:CSI03:1,2011-10-07T19:00:00Z,29.4412,-92.0613,1016.9,11111222 
WAVCIS,ioos:station:WAVCIS:CSI03:1,2011-10-07T20:00:00Z,29.4412,-92.0613,1016.37,11111222 
WAVCIS,ioos:station:WAVCIS:CSI03:1,2011-10-07T21:00:00Z,29.4412,-92.0613,1015.92,11111222 
WAVCIS,ioos:station:WAVCIS:CSI03:1,2011-10-07T22:00:00Z,29.4412,-92.0613,1015.51,11111222 
WAVCIS,ioos:station:WAVCIS:CSI03:1,2011-10-07T23:00:00Z,29.4412,-92.0613,1015.42,11111222 
WAVCIS,ioos:station:WAVCIS:CSI03:1,2011-10-08T00:00:00Z,29.4412,-92.0613,1015.82,11111222 
WAVCIS,ioos:station:WAVCIS:CSI03:1,2011-10-08T01:00:00Z,29.4412,-92.0613,1016.18,11111222 
WAVCIS,ioos:station:WAVCIS:CSI03:1,2011-10-08T02:00:00Z,29.4412,-92.0613,1016.88,11111222 
WAVCIS,ioos:station:WAVCIS:CSI03:1,2011-10-08T03:00:00Z,29.4412,-92.0613,1017.29,11111222 
WAVCIS,ioos:station:WAVCIS:CSI03:1,2011-10-08T04:00:00Z,29.4412,-92.0613,1017.29,11111222 
WAVCIS,ioos:station:WAVCIS:CSI03:1,2011-10-08T05:00:00Z,29.4412,-92.0613,1016.84,11111222 
WAVCIS,ioos:station:WAVCIS:CSI03:1,2011-10-08T06:00:00Z,29.4412,-92.0613,1016.63,11111222 
WAVCIS,ioos:station:WAVCIS:CSI03:1,2011-10-08T07:00:00Z,29.4412,-92.0613,1016.36,11111222 
WAVCIS,ioos:station:WAVCIS:CSI03:1,2011-10-08T08:00:00Z,29.4412,-92.0613,1016.1,11111222 
WAVCIS,ioos:station:WAVCIS:CSI03:1,2011-10-08T09:00:00Z,29.4412,-92.0613,1015.75,11111222 
WAVCIS,ioos:station:WAVCIS:CSI03:1,2011-10-08T10:00:00Z,29.4412,-92.0613,1015.86,11111222 
WAVCIS,ioos:station:WAVCIS:CSI03:1,2011-10-08T11:00:00Z,29.4412,-92.0613,1016.02,11111222 
WAVCIS,ioos:station:WAVCIS:CSI03:1,2011-10-08T12:00:00Z,29.4412,-92.0613,1016.17,11111222 
WAVCIS,ioos:station:WAVCIS:CSI03:1,2011-10-08T13:00:00Z,29.4412,-92.0613,1016.46,11111222 
WAVCIS,ioos:station:WAVCIS:CSI03:1,2011-10-08T14:00:00Z,29.4412,-92.0613,1016.55,11111222 
WAVCIS,ioos:station:WAVCIS:CSI03:1,2011-10-08T15:00:00Z,29.4412,-92.0613,1016.66,11111222 
WAVCIS,ioos:station:WAVCIS:CSI03:1,2011-10-08T16:00:00Z,29.4412,-92.0613,1016.78,11111222 
WAVCIS,ioos:station:WAVCIS:CSI03:1,2011-10-08T17:00:00Z,29.4412,-92.0613,1016.59,11111222 
WAVCIS,ioos:station:WAVCIS:CSI03:1,2011-10-08T18:00:00Z,29.4412,-92.0613,1015.94,11111222 
WAVCIS,ioos:station:WAVCIS:CSI03:1,2011-10-08T19:00:00Z,29.4412,-92.0613,1015.22,11111222 
WAVCIS,ioos:station:WAVCIS:CSI03:1,2011-10-08T20:00:00Z,29.4412,-92.0613,1014.53,11111222 
WAVCIS,ioos:station:WAVCIS:CSI03:1,2011-10-08T21:00:00Z,29.4412,-92.0613,1014.1,11111222 
WAVCIS,ioos:station:WAVCIS:CSI03:1,2011-10-08T22:00:00Z,29.4412,-92.0613,1014.0,11111222 
WAVCIS,ioos:station:WAVCIS:CSI03:1,2011-10-08T23:00:00Z,29.4412,-92.0613,1013.6,11111222 
WAVCIS,ioos:station:WAVCIS:CSI03:1,2011-10-09T00:00:00Z,29.4412,-92.0613,1013.98,11111222 
WAVCIS,ioos:station:WAVCIS:CSI03:1,2011-10-09T01:00:00Z,29.4412,-92.0613,1014.24,11111222 
WAVCIS,ioos:station:WAVCIS:CSI03:1,2011-10-09T02:00:00Z,29.4412,-92.0613,1014.49,11111222 
WAVCIS,ioos:station:WAVCIS:CSI03:1,2011-10-09T03:00:00Z,29.4412,-92.0613,1014.56,11111222 
WAVCIS,ioos:station:WAVCIS:CSI03:1,2011-10-09T04:00:00Z,29.4412,-92.0613,1014.61,11111222 
WAVCIS,ioos:station:WAVCIS:CSI03:1,2011-10-09T05:00:00Z,29.4412,-92.0613,1014.22,11111222 
WAVCIS,ioos:station:WAVCIS:CSI03:1,2011-10-09T06:00:00Z,29.4412,-92.0613,1014.34,11111222 
WAVCIS,ioos:station:WAVCIS:CSI03:1,2011-10-09T07:00:00Z,29.4412,-92.0613,1013.71,11111222 
WAVCIS,ioos:station:WAVCIS:CSI03:1,2011-10-09T08:00:00Z,29.4412,-92.0613,1013.42,11111222 
WAVCIS,ioos:station:WAVCIS:CSI03:1,2011-10-09T09:00:00Z,29.4412,-92.0613,1013.34,11111222 
WAVCIS,ioos:station:WAVCIS:CSI03:1,2011-10-09T10:00:00Z,29.4412,-92.0613,1013.15,11111222 
WAVCIS,ioos:station:WAVCIS:CSI03:1,2011-10-09T11:00:00Z,29.4412,-92.0613,1013.21,11111222 
WAVCIS,ioos:station:WAVCIS:CSI03:1,2011-10-09T12:00:00Z,29.4412,-92.0613,1013.46,11111222 
WAVCIS,ioos:station:WAVCIS:CSI03:1,2011-10-09T13:00:00Z,29.4412,-92.0613,1013.41,11111222 
WAVCIS,ioos:station:WAVCIS:CSI03:1,2011-10-09T14:00:00Z,29.4412,-92.0613,1013.65,11111222 
WAVCIS,ioos:station:WAVCIS:CSI03:1,2011-10-09T15:00:00Z,29.4412,-92.0613,1013.98,11111222 
WAVCIS,ioos:station:WAVCIS:CSI03:1,2011-10-09T16:00:00Z,29.4412,-92.0613,1014.01,11111222 
WAVCIS,ioos:station:WAVCIS:CSI03:1,2011-10-09T17:00:00Z,29.4412,-92.0613,1013.86,11111222 
WAVCIS,ioos:station:WAVCIS:CSI03:1,2011-10-09T18:00:00Z,29.4412,-92.0613,1013.29,11111222 
WAVCIS,ioos:station:WAVCIS:CSI03:1,2011-10-09T19:00:00Z,29.4412,-92.0613,1012.15,11111222 
WAVCIS,ioos:station:WAVCIS:CSI03:1,2011-10-09T20:00:00Z,29.4412,-92.0613,1011.32,11111222 
WAVCIS,ioos:station:WAVCIS:CSI03:1,2011-10-09T21:00:00Z,29.4412,-92.0613,1011.32,11111222 
WAVCIS,ioos:station:WAVCIS:CSI03:1,2011-10-09T22:00:00Z,29.4412,-92.0613,1011.39,11111222 
WAVCIS,ioos:station:WAVCIS:CSI03:1,2011-10-09T23:00:00Z,29.4412,-92.0613,1011.29,11111222 
WAVCIS,ioos:station:WAVCIS:CSI03:1,2011-10-10T00:00:00Z,29.4412,-92.0613,1011.34,11111222 
WAVCIS,ioos:station:WAVCIS:CSI03:1,2011-10-10T01:00:00Z,29.4412,-92.0613,1011.8,11111222 
WAVCIS,ioos:station:WAVCIS:CSI03:1,2011-10-10T02:00:00Z,29.4412,-92.0613,1012.43,11111222 
WAVCIS,ioos:station:WAVCIS:CSI03:1,2011-10-10T03:00:00Z,29.4412,-92.0613,1012.28,11111222 
WAVCIS,ioos:station:WAVCIS:CSI03:1,2011-10-10T04:00:00Z,29.4412,-92.0613,1012.43,11111222 
WAVCIS,ioos:station:WAVCIS:CSI03:1,2011-10-10T05:00:00Z,29.4412,-92.0613,1012.4,11111222 
WAVCIS,ioos:station:WAVCIS:CSI03:1,2011-10-10T06:00:00Z,29.4412,-92.0613,1012.35,11111222 
WAVCIS,ioos:station:WAVCIS:CSI03:1,2011-10-10T07:00:00Z,29.4412,-92.0613,1012.3,11111222 
WAVCIS,ioos:station:WAVCIS:CSI03:1,2011-10-10T08:00:00Z,29.4412,-92.0613,1011.72,11111222 
WAVCIS,ioos:station:WAVCIS:CSI03:1,2011-10-10T09:00:00Z,29.4412,-92.0613,1011.03,11111222 
WAVCIS,ioos:station:WAVCIS:CSI03:1,2011-10-10T10:00:00Z,29.4412,-92.0613,1011.5,11111222 
WAVCIS,ioos:station:WAVCIS:CSI03:1,2011-10-10T11:00:00Z,29.4412,-92.0613,1011.87,11111222 
WAVCIS,ioos:station:WAVCIS:CSI03:1,2011-10-10T12:00:00Z,29.4412,-92.0613,1011.66,11111222 
WAVCIS,ioos:station:WAVCIS:CSI03:1,2011-10-10T13:00:00Z,29.4412,-92.0613,1012.13,11111222 
WAVCIS,ioos:station:WAVCIS:CSI03:1,2011-10-10T14:00:00Z,29.4412,-92.0613,1012.53,11111222 
WAVCIS,ioos:station:WAVCIS:CSI03:1,2011-10-10T15:00:00Z,29.4412,-92.0613,1013.12,11111222 
WAVCIS,ioos:station:WAVCIS:CSI03:1,2011-10-10T16:00:00Z,29.4412,-92.0613,1012.97,11111222 
WAVCIS,ioos:station:WAVCIS:CSI03:1,2011-10-10T17:00:00Z,29.4412,-92.0613,1012.82,11111222 
WAVCIS,ioos:station:WAVCIS:CSI03:1,2011-10-10T18:00:00Z,29.4412,-92.0613,1012.03,11111222 
WAVCIS,ioos:station:WAVCIS:CSI03:1,2011-10-10T19:00:00Z,29.4412,-92.0613,1011.55,11111222 
WAVCIS,ioos:station:WAVCIS:CSI03:1,2011-10-10T20:00:00Z,29.4412,-92.0613,1011.02,11111222 
WAVCIS,ioos:station:WAVCIS:CSI03:1,2011-10-10T21:00:00Z,29.4412,-92.0613,1010.39,11111222 
WAVCIS,ioos:station:WAVCIS:CSI03:1,2011-10-10T22:00:00Z,29.4412,-92.0613,1009.99,11111222 
WAVCIS,ioos:station:WAVCIS:CSI03:1,2011-10-10T23:00:00Z,29.4412,-92.0613,1009.78,11111222 
WAVCIS,ioos:station:WAVCIS:CSI03:1,2011-10-11T00:00:00Z,29.4412,-92.0613,1009.87,11111222 
WAVCIS,ioos:station:WAVCIS:CSI03:1,2011-10-11T01:00:00Z,29.4412,-92.0613,1010.02,11111222 
WAVCIS,ioos:station:WAVCIS:CSI03:1,2011-10-11T02:00:00Z,29.4412,-92.0613,1010.44,11111222 
WAVCIS,ioos:station:WAVCIS:CSI03:1,2011-10-11T03:00:00Z,29.4412,-92.0613,1010.53,11111222 
WAVCIS,ioos:station:WAVCIS:CSI03:1,2011-10-11T04:00:00Z,29.4412,-92.0613,1010.17,11111222 
WAVCIS,ioos:station:WAVCIS:CSI03:1,2011-10-11T05:00:00Z,29.4412,-92.0613,1009.96,11111222 
WAVCIS,ioos:station:WAVCIS:CSI03:1,2011-10-11T06:00:00Z,29.4412,-92.0613,1009.65,11111222 
WAVCIS,ioos:station:WAVCIS:CSI03:1,2011-10-11T07:00:00Z,29.4412,-92.0613,1009.47,11111222 
WAVCIS,ioos:station:WAVCIS:CSI03:1,2011-10-11T08:00:00Z,29.4412,-92.0613,1009.26,11111222 
WAVCIS,ioos:station:WAVCIS:CSI03:1,2011-10-11T09:00:00Z,29.4412,-92.0613,1009.07,11111222 
WAVCIS,ioos:station:WAVCIS:CSI03:1,2011-10-11T10:00:00Z,29.4412,-92.0613,1009.51,11111222 
WAVCIS,ioos:station:WAVCIS:CSI03:1,2011-10-11T11:00:00Z,29.4412,-92.0613,1009.91,11111222 
WAVCIS,ioos:station:WAVCIS:CSI03:1,2011-10-11T12:00:00Z,29.4412,-92.0613,1010.25,11111222 
WAVCIS,ioos:station:WAVCIS:CSI03:1,2011-10-11T13:00:00Z,29.4412,-92.0613,1010.27,11111222 
WAVCIS,ioos:station:WAVCIS:CSI03:1,2011-10-11T14:00:00Z,29.4412,-92.0613,1010.7,11111222 
WAVCIS,ioos:station:WAVCIS:CSI03:1,2011-10-11T15:00:00Z,29.4412,-92.0613,1010.84,11111222 
WAVCIS,ioos:station:WAVCIS:CSI03:1,2011-10-11T16:00:00Z,29.4412,-92.0613,1010.82,11111222 
WAVCIS,ioos:station:WAVCIS:CSI03:1,2011-10-11T17:00:00Z,29.4412,-92.0613,1010.4,11111222 
WAVCIS,ioos:station:WAVCIS:CSI03:1,2011-10-11T18:00:00Z,29.4412,-92.0613,1009.77,11111222 
WAVCIS,ioos:station:WAVCIS:CSI03:1,2011-10-11T19:00:00Z,29.4412,-92.0613,1008.76,11111222 
WAVCIS,ioos:station:WAVCIS:CSI03:1,2011-10-11T20:00:00Z,29.4412,-92.0613,1008.35,11111222 
WAVCIS,ioos:station:WAVCIS:CSI03:1,2011-10-11T21:00:00Z,29.4412,-92.0613,1007.96,11111222 
WAVCIS,ioos:station:WAVCIS:CSI03:1,2011-10-11T22:00:00Z,29.4412,-92.0613,1007.74,11111222 